Flag for U.S.A. Weather past 2 weeks in Augusta, Georgia, U.S.A.

Now
58 °F

Light rain. Overcast.


Feels Like: 55 °F
Forecast: 51 / 55 °F
Wind: 13 mph from Northeast

Location: Daniel Field


UV Index: 0 (Low)

Visibility: 10 mi


Pressure: 30.06 "Hg

Humidity: 81%

Dew point: 52 °F

Location of AugustaLocation

Historic Weather in Augusta

°F

Augusta temperature yesterday

Maximum temperature yesterday: 59 °F (at 12:53 AM)
Minimum temperature yesterday: 52 °F (at 8:53 PM)
Average temperature yesterday: 55 °F

Past Weeks' High & Low Weather Summary

 TemperatureHumidityPressure
High84 °F (Apr 4, 4:53 PM)100% (Apr 7, 7:53 AM)30.47 "Hg (Apr 7, 7:53 AM)
Low38 °F (Apr 16, 5:53 AM)13% (Apr 5, 4:53 PM)29.65 "Hg (Apr 8, 4:53 PM)
Average63 °F60%30.05 "Hg
* Reported Apr 4 4:53 PM — Apr 19 4:53 PM, Augusta, Weather by CustomWeather, © 2014

Note: Actual official high and low records may vary slightly from our data, if they occured in-between our weather recording intervals... More about our weather records

Advertising

Historic Weather Conditions — Data for Previous 24 hours

 ConditionsComfort  
Time TempWeatherWind HumidityBarometerVisibility
4:53 PM
Apr 19
58 °FOvercast.9 mph84%30.04 "Hg10 mi
3:53 PM59 °FOvercast.18 mph81%30.03 "Hg10 mi
2:53 PM58 °FOvercast.15 mph84%30.03 "Hg10 mi
1:53 PM59 °FOvercast.16 mph81%30.04 "Hg10 mi
12:53 PM57 °FLight rain. Overcast.15 mph90%30.03 "Hg10 mi
11:53 AM57 °FLight rain. Overcast.13 mph87%30.05 "Hg10 mi
10:53 AM55 °FLight rain. Fog.14 mph90%30.04 "Hg4 mi
9:53 AM55 °FLight rain. Fog.15 mph90%30.03 "Hg4 mi
8:53 AM54 °FOvercast.14 mph90%30.02 "Hg10 mi
7:53 AM53 °FOvercast.13 mph93%30.02 "Hg10 mi
6:53 AM53 °FLight rain. Fog.10 mph93%30.01 "Hg6 mi
5:53 AM53 °FOvercast.13 mph89%30.00 "Hg10 mi
5:01 AM53 °FLight rain. Fog.10 mph93%30.00 "Hg4 mi
3:53 AM53 °FLow clouds.12 mph93%30.00 "Hg10 mi
2:53 AM53 °FLight rain. Fog.9 mph93%30.01 "Hg5 mi
2:04 AM53 °FLight rain. Mostly cloudy.10 mph93%30.04 "Hg7 mi
1:53 AM53 °FLight rain. Fog.7 mph96%30.04 "Hg5 mi
12:53 AM53 °FRain. Fog.8 mph96%30.05 "Hg5 mi
12:02 AM53 °FHeavy rain. Fog.9 mph93%30.05 "Hg3 mi
10:53 PM
Apr 18
53 °FRain. Fog.15 mph89%30.05 "Hg6 mi
9:53 PM52 °FRain. Fog.20 mph93%30.07 "Hg5 mi
8:53 PM52 °FLight rain. Cloudy.17 mph93%30.11 "Hg7 mi
7:53 PM53 °FRain. Fog.18 mph89%30.12 "Hg3 mi
6:53 PM54 °FHeavy rain. Fog.12 mph93%30.14 "Hg2 mi
Weather by CustomWeather, © 2014

See weather overview